Torna al catalogo

GALILEO 19

2C5

AttivoNavigazioneMEO
NORAD 43055·PAYLOAD·🇪🇺 EU

Lanciato Dec 12, 2017 da Guiana Space Centre

Loading…

Prossimi Passaggi (prossime 24 ore)

TLE

AggiornatoSource: CelesTrak SupGP

Epoca: Sep 13, 2026, 23:59 UTC

1 43055C 17079A   26256.99979167  .00000000  00000+0  00000+0 0  2563
2 43055  55.0533 219.0638 0003310 283.9900 327.8595  1.70474024    16

Traccia GALILEO 19 in tempo reale con AllMySat

Download on the App Store